[[{"header":{"parameterUnit":"m.s-1","parameterCategory":1,"la1":30.2991,"la2":30.254,"lo1":-89.0895,"lo2":-89.0444,"dy":0.0017,"dx":0.0017,"nx":28,"ny":28,"refTime":"2025-06-06T09:00:00:Z","depth":0,"parameterNumber":2,"parameterNumberName":"U-component_of_WINDS"},"data":[0,0,0,0,0,0,0,0,0,0,0,0,0,0,0,0,0,0,0,0,0,0,0,0,0,0,0,0,0,0,0,0,0,0,0,0,0,0,0,0,0,0,0,0,0,0,0,0,0,0,0,0,0,0,0,0,0,0,4.7691,4.7692,0,4.7786,4.7788,4.7789,4.7758,4.7756,4.7754,4.7752,4.7848,4.7852,4.7856,0,0,0,0,0,0,0,0,0,0,0,0,0,4.7477,4.7482,4.7691,4.7692,4.7693,4.7786,4.7788,4.7789,4.7759,4.7756,4.7754,4.7751,4.7846,4.7852,4.7857,0,0,0,0,0,0,0,0,0,0,0,0,0,4.7571,4.7483,4.769,4.7689,4.769,4.7786,4.7788,4.7789,4.7759,4.7756,4.7753,4.775,4.7845,4.7851,4.7858,4.796,0,0,4.7878,4.7881,0,0,0,0,0,0,0,0,4.7566,4.7579,4.7688,4.769,4.7691,4.7757,4.7747,4.7846,4.776,4.7733,4.7752,4.7749,4.782,4.7828,4.7853,4.7964,4.7968,4.7879,4.7883,4.7885,4.7887,0,0,0,0,0,0,0,4.756,4.7575,4.7728,4.769,4.7691,4.7683,4.7693,4.7766,4.7792,4.7735,4.7733,4.7745,4.782,4.7847,4.7855,4.797,4.7878,4.7884,4.7888,4.7891,4.8165,4.8168,0,0,0,0,0,0,4.7553,4.757,4.7725,4.7731,4.762,4.7689,4.77,4.7739,4.7791,4.7797,4.7747,4.7743,4.7837,4.7847,4.7858,4.7978,4.7885,4.7892,4.7895,4.8162,4.8166,4.8169,0,0,0,0,0,0,4.7548,4.7567,4.7722,4.765,4.7669,4.7696,4.774,4.7742,4.7769,4.7801,4.7805,4.777,4.7835,4.7849,4.7934,4.7981,4.7895,4.7901,4.8158,4.8163,4.8168,4.822,0,0,0,0,0,0,4.7542,4.7566,4.7606,4.7651,4.7673,4.7797,4.7743,4.7747,4.7781,4.7776,4.7823,4.7828,4.7834,4.7924,4.7941,4.7989,4.7906,4.8154,4.816,4.8166,4.8214,4.8227,4.8237,0,0,0,0,0,4.7535,4.7617,4.7608,4.7627,4.7724,4.78,4.7812,4.7818,4.7785,4.7824,4.7844,4.7826,4.7974,4.7933,4.7951,4.8002,4.8151,4.8158,4.8166,4.8209,4.8224,4.8237,0,0,0,0,0,0,4.7576,4.7623,4.7613,4.7713,4.7753,4.7795,4.7845,4.7834,4.7883,4.7876,4.788,4.7891,4.7977,4.7999,4.7953,4.8102,4.8057,4.8069,4.8084,4.8099,4.811,4.8101,4.7911,0,0,0,0,0,4.7597,4.7656,4.7693,4.7777,4.7798,4.7818,4.7851,4.7852,4.7893,4.7909,4.7936,4.7975,4.803,4.8066,4.8118,4.8218,4.8226,4.8262,4.8273,4.8282,4.8291,4.8342,4.8357,4.8194,4.8194,4.8193,0,0,4.764,4.7673,4.771,4.7787,4.7817,4.7876,4.7832,4.7898,4.794,4.7919,4.8,4.8021,4.8065,4.8157,4.8199,4.8177,4.8338,4.8291,4.8298,4.8302,4.8351,4.8366,4.838,4.8199,4.8198,4.8197,0,0,4.7748,4.7781,4.7853,4.7884,4.7931,4.7944,4.7961,4.8005,4.8018,4.81,4.8083,4.8134,4.823,4.8261,4.8289,4.8407,4.8391,4.8424,4.8481,4.8531,4.8544,4.8555,4.8594,4.8608,4.8434,4.8434,4.8434,0,4.7796,4.7885,4.7891,4.7957,4.7989,4.7973,4.8044,4.8075,4.8136,4.8158,4.8134,4.8251,4.828,4.8377,4.8406,4.8431,4.8448,4.8418,4.8542,4.8553,4.8564,4.8601,4.8616,4.8437,4.8437,4.8436,4.8436,0,4.7939,4.8001,4.8054,4.8113,4.8152,4.8221,4.8235,4.8274,4.8271,4.8285,4.8367,4.8401,4.8458,4.8482,4.848,4.8578,4.8563,4.8541,4.8495,4.8583,4.8617,4.8632,4.8442,4.8441,4.844,4.8439,0,0,4.8075,4.8137,4.8155,4.8181,4.8231,4.8278,4.8345,4.8402,4.8433,4.8476,4.853,4.861,4.8589,4.8621,4.8622,4.8666,4.8753,4.8637,4.8638,4.8655,4.8859,4.8873,4.889,4.8744,4.8747,4.8749,4.8854,0,4.8185,4.8303,4.8309,4.8415,4.8471,4.8456,4.8513,4.8549,4.8564,4.8612,4.8629,4.8684,4.8653,4.8672,4.8715,4.8733,4.8793,4.8726,4.8791,4.8793,4.8777,4.8909,4.8925,4.9023,4.8868,4.887,4.8872,0,4.8329,4.8376,4.8487,4.8527,4.8551,4.8602,4.8653,4.87,4.874,4.8748,4.8783,4.8777,4.8843,4.8797,4.8886,4.884,4.8867,4.888,4.8884,4.8888,4.8836,4.8913,4.9054,4.9068,4.8894,4.8892,4.8891,0,4.8413,4.8504,4.8581,4.8604,4.8654,4.869,4.8712,4.8749,4.8781,4.8826,4.8846,4.8898,4.8925,4.8964,4.8972,4.8939,4.906,4.9016,4.9065,4.9065,4.9089,4.9087,4.9234,4.9112,4.9112,4.9112,4.9111,0,4.8533,4.8601,4.8619,4.8667,4.8741,4.8748,4.8821,4.884,4.8873,4.8922,4.8913,4.8959,4.8968,4.9015,4.9022,4.9092,4.9106,4.9112,4.9112,4.9111,4.911,4.9127,4.9119,4.9116,4.9115,4.9114,4.9113,0,4.8638,4.8654,4.8737,4.8776,4.8788,4.8841,4.8874,4.8918,4.8932,4.8994,4.9009,4.9031,4.9086,4.9098,4.9164,4.9168,4.9251,4.9246,4.9237,4.9236,4.9283,4.9277,4.9444,4.9464,4.9332,4.9333,4.9335,0,4.8712,4.8764,4.8809,4.8841,4.8865,4.8918,4.8951,4.8959,4.8993,4.9041,4.9079,4.9133,4.9177,4.9265,4.9285,4.9335,4.9329,4.9384,4.9336,4.9332,4.9326,4.9321,4.9325,4.9392,4.9394,4.9395,4.9396,0,4.8841,4.8845,4.8894,4.8945,4.8985,4.9025,4.9063,4.909,4.9103,4.9142,4.9198,4.9232,4.9298,4.9351,4.94,4.9421,4.9409,4.9411,4.9424,4.9422,4.9413,4.9415,4.9258,4.9406,4.9405,4.9405,4.9404,4.9404,4.893,4.8974,4.9012,4.9066,4.9095,4.9131,4.9173,4.9193,4.924,4.9295,4.9297,4.9357,4.9393,4.9458,4.9482,4.9528,4.951,4.9531,4.9535,4.9539,4.9542,4.9409,4.9537,4.9537,4.9537,4.9536,4.9536,0,4.9055,4.9078,4.9128,4.9181,4.9223,4.921,4.9251,4.9286,4.934,4.9375,4.9418,4.9481,4.9532,4.9556,4.9606,4.9638,4.9633,4.965,4.9646,4.965,4.9557,4.9538,4.9652,4.9652,4.9652,4.9652,4.9652,4.9652,4.9125,4.9197,4.9206,4.9293,4.9316,4.9375,4.9399,4.9431,4.9459,4.953,4.9572,4.9588,4.9618,4.9669,4.9714,4.972,4.9737,4.9755,4.9758,4.9669,4.9657,4.9646,4.9629,4.976,4.976,4.9848,4.9848,4.9849]},{"header":{"parameterUnit":"m.s-1","parameterCategory":1,"la1":30.2991,"la2":30.254,"lo1":-89.0895,"lo2":-89.0444,"dy":0.0017,"dx":0.0017,"nx":28,"ny":28,"refTime":"2025-06-06T09:00:00:Z","depth":0,"parameterNumber":3,"parameterNumberName":"V-component_of_WINDS"},"data":[0,0,0,0,0,0,0,0,0,0,0,0,0,0,0,0,0,0,0,0,0,0,0,0,0,0,0,0,0,0,0,0,0,0,0,0,0,0,0,0,0,0,0,0,0,0,0,0,0,0,0,0,0,0,0,0,0,0,5.7471,5.7473,0,5.7618,5.762,5.7622,5.7587,5.7585,5.7582,5.7579,5.7724,5.773,5.7736,0,0,0,0,0,0,0,0,0,0,0,0,0,5.7154,5.716,5.7471,5.7473,5.7475,5.7618,5.762,5.7622,5.7588,5.7585,5.7581,5.7578,5.7722,5.7729,5.7737,0,0,0,0,0,0,0,0,0,0,0,0,0,5.7295,5.7162,5.7471,5.7475,5.7477,5.7618,5.762,5.7623,5.7589,5.7584,5.758,5.7576,5.7719,5.7728,5.7738,5.7881,0,0,5.7768,5.7772,0,0,0,0,0,0,0,0,5.7287,5.7307,5.7473,5.7475,5.7478,5.758,5.7561,5.7709,5.759,5.7546,5.7579,5.7574,5.7679,5.7692,5.7728,5.7888,5.7894,5.7768,5.7774,5.7778,5.7781,0,0,0,0,0,0,0,5.7278,5.7301,5.7529,5.7475,5.7478,5.7468,5.7483,5.7589,5.7634,5.755,5.7548,5.7566,5.7679,5.7719,5.7731,5.7896,5.7768,5.7777,5.7783,5.7786,5.8179,5.8184,0,0,0,0,0,0,5.7267,5.7293,5.7524,5.7533,5.737,5.7477,5.7494,5.7551,5.7633,5.7641,5.7569,5.7564,5.7705,5.772,5.7736,5.7909,5.7778,5.7787,5.7793,5.8175,5.818,5.8185,0,0,0,0,0,0,5.726,5.7288,5.7518,5.7413,5.7441,5.7487,5.7551,5.7557,5.7596,5.7648,5.7655,5.7602,5.7702,5.7723,5.7846,5.7913,5.7792,5.7801,5.8169,5.8177,5.8183,5.8256,0,0,0,0,0,0,5.7251,5.7286,5.7342,5.7414,5.7447,5.7628,5.7556,5.7562,5.7614,5.7608,5.768,5.7688,5.77,5.7831,5.7855,5.7925,5.7808,5.8163,5.8173,5.8181,5.8247,5.8264,5.8279,0,0,0,0,0,5.724,5.7356,5.7345,5.7373,5.7519,5.7632,5.765,5.7664,5.7619,5.7676,5.7708,5.7686,5.7902,5.7844,5.7871,5.7944,5.8159,5.817,5.818,5.824,5.8261,5.8278,0,0,0,0,0,0,5.7289,5.7365,5.7355,5.7498,5.7559,5.7626,5.7697,5.7685,5.7758,5.775,5.7761,5.7778,5.7903,5.7935,5.787,5.8086,5.8024,5.804,5.8061,5.8081,5.8096,5.8085,5.7816,0,0,0,0,0,5.7316,5.7404,5.7465,5.7585,5.7616,5.7652,5.7701,5.7706,5.7769,5.7794,5.7836,5.7896,5.7977,5.8031,5.8108,5.8252,5.8266,5.8315,5.833,5.8343,5.8357,5.8434,5.8456,5.822,5.822,5.8219,0,0,5.7374,5.7426,5.748,5.7596,5.7644,5.7732,5.7674,5.7769,5.7834,5.7808,5.7927,5.796,5.8027,5.8161,5.8222,5.8192,5.8425,5.8356,5.8366,5.8373,5.8447,5.8469,5.8489,5.8227,5.8226,5.8224,0,0,5.7524,5.7573,5.7678,5.7728,5.7801,5.7824,5.7849,5.7919,5.794,5.806,5.8042,5.8118,5.8258,5.8307,5.835,5.8517,5.8499,5.8542,5.8623,5.8698,5.8717,5.8734,5.8792,5.8814,5.8555,5.8556,5.8556,0,5.7585,5.7719,5.7733,5.7831,5.7881,5.7864,5.7969,5.8015,5.811,5.8144,5.811,5.8286,5.833,5.8474,5.8515,5.855,5.8578,5.8534,5.8714,5.873,5.8746,5.8802,5.8824,5.856,5.856,5.8559,5.8559,0,5.7791,5.7884,5.796,5.8054,5.8113,5.8213,5.824,5.8298,5.8298,5.8323,5.8444,5.8497,5.8585,5.8619,5.8619,5.8763,5.8742,5.8711,5.8648,5.8773,5.8826,5.8848,5.8567,5.8566,5.8564,5.8563,0,0,5.7976,5.8077,5.8104,5.8146,5.8226,5.8297,5.8396,5.8484,5.8532,5.8598,5.868,5.8799,5.877,5.8819,5.8824,5.889,5.9018,5.885,5.8851,5.8879,5.9179,5.9202,5.9227,5.9006,5.901,5.9013,5.9173,0,5.8133,5.831,5.8325,5.8484,5.8569,5.8553,5.8638,5.8695,5.8722,5.8796,5.8823,5.8907,5.8864,5.8893,5.8957,5.8989,5.9078,5.8977,5.9081,5.9084,5.9065,5.9255,5.928,5.9428,5.9194,5.9197,5.92,0,5.834,5.8413,5.8581,5.8649,5.8685,5.8762,5.8843,5.8915,5.8978,5.8992,5.9047,5.9043,5.9142,5.9076,5.9212,5.9143,5.9186,5.9208,5.9214,5.9224,5.915,5.9269,5.9475,5.9498,5.9233,5.923,5.9228,0,5.8457,5.8598,5.8717,5.8753,5.8835,5.8889,5.8925,5.8985,5.9036,5.9106,5.9139,5.9219,5.9263,5.9323,5.934,5.9291,5.9475,5.9411,5.9488,5.9488,5.9528,5.9525,5.9744,5.9556,5.9556,5.9555,5.9555,0,5.8631,5.8734,5.8771,5.8844,5.8958,5.8972,5.9084,5.9117,5.917,5.9247,5.9237,5.9309,5.9326,5.9401,5.9414,5.9524,5.9544,5.9556,5.9559,5.9558,5.9556,5.9586,5.9576,5.9561,5.956,5.9559,5.9558,0,5.8782,5.8811,5.8939,5.9006,5.9025,5.9106,5.9162,5.9231,5.9256,5.9353,5.9377,5.9415,5.9502,5.9525,5.9628,5.9637,5.9767,5.9759,5.9746,5.9746,5.9822,5.9814,6.0067,6.01,5.9891,5.9893,5.9895,0,5.8891,5.897,5.9046,5.9098,5.9137,5.9221,5.9274,5.929,5.9345,5.9423,5.9482,5.9569,5.9639,5.9779,5.9814,5.9893,5.9887,5.997,5.9899,5.9895,5.9888,5.9883,5.989,5.9983,5.9986,5.9987,5.9989,0,5.9081,5.9091,5.9169,5.9252,5.9316,5.9381,5.9444,5.9486,5.9511,5.9573,5.9664,5.9718,5.9825,5.991,5.999,6.0024,6.0011,6.0011,6.0033,6.0033,6.0022,6.0028,5.9783,6.0005,6.0004,6.0002,6.0002,6.0001,5.9214,5.9283,5.9348,5.9434,5.9483,5.9542,5.961,5.9644,5.972,5.981,5.9814,5.9912,5.9971,6.0077,6.0116,6.0191,6.0166,6.0198,6.0206,6.0214,6.022,6.001,6.0206,6.0205,6.0205,6.0204,6.0204,0,5.9403,5.9444,5.9523,5.9612,5.968,5.9663,5.9731,5.9788,5.9875,5.9933,6.0003,6.0106,6.0188,6.023,6.0311,6.0363,6.0359,6.0384,6.038,6.0388,6.0238,6.0211,6.0386,6.0386,6.0386,6.0386,6.0386,6.0386,5.9509,5.9626,5.9644,5.9783,5.9822,5.992,5.996,6.0014,6.006,6.0176,6.0246,6.0273,6.0324,6.0409,6.0483,6.0493,6.0523,6.0552,6.0558,6.0417,6.0399,6.0381,6.0356,6.0558,6.0558,6.0702,6.0703,6.0704]}]]